[[{"header":{"parameterUnit":"m.s-1","parameterCategory":1,"la1":30.2991,"la2":30.254,"lo1":-89.0895,"lo2":-89.0444,"dy":0.0017,"dx":0.0017,"nx":28,"ny":28,"refTime":"2023-08-29T09:00:00:Z","depth":0,"parameterNumber":2,"parameterNumberName":"U-component_of_WINDS"},"data":[0,0,0,0,0,0,0,0,0,0,0,0,0,0,0,0,0,0,0,0,0,0,0,0,0,0,0,0,0,0,0,0,0,0,0,0,0,0,0,0,0,0,0,0,0,0,0,0,0,0,0,0,0,0,0,0,0,0,-1.543,-1.5427,0,-1.5164,-1.5161,-1.5158,-1.4954,-1.4952,-1.495,-1.4948,-1.467,-1.4664,-1.4659,0,0,0,0,0,0,0,0,0,0,0,0,0,-1.5756,-1.5751,-1.543,-1.5427,-1.5424,-1.5165,-1.5161,-1.5158,-1.4954,-1.4952,-1.495,-1.4947,-1.4672,-1.4665,-1.4658,0,0,0,0,0,0,0,0,0,0,0,0,0,-1.5565,-1.5749,-1.5431,-1.5291,-1.5276,-1.5166,-1.5161,-1.5157,-1.4955,-1.4952,-1.4949,-1.4946,-1.4674,-1.4666,-1.4657,-1.4662,0,0,-1.4631,-1.4628,0,0,0,0,0,0,0,0,-1.5576,-1.5553,-1.5315,-1.5301,-1.5283,-1.509,-1.5174,-1.4991,-1.4955,-1.5077,-1.4948,-1.4945,-1.4811,-1.4791,-1.4747,-1.4649,-1.4637,-1.4631,-1.4625,-1.4622,-1.4619,0,0,0,0,0,0,0,-1.5589,-1.5563,-1.5325,-1.5312,-1.5292,-1.524,-1.521,-1.5138,-1.4963,-1.5066,-1.505,-1.5022,-1.4802,-1.4756,-1.4739,-1.4633,-1.4631,-1.4623,-1.4618,-1.4615,-1.4525,-1.4528,0,0,0,0,0,0,-1.5625,-1.5576,-1.5333,-1.5317,-1.5426,-1.5236,-1.5202,-1.5155,-1.4963,-1.4931,-1.5025,-1.5013,-1.4772,-1.475,-1.4729,-1.4721,-1.4622,-1.4614,-1.4609,-1.4522,-1.4526,-1.4529,0,0,0,0,0,0,-1.5633,-1.5606,-1.5344,-1.5442,-1.5405,-1.5234,-1.5182,-1.5151,-1.5105,-1.4932,-1.4899,-1.5011,-1.4769,-1.4741,-1.4681,-1.4709,-1.461,-1.4602,-1.4519,-1.4523,-1.4527,-1.4708,0,0,0,0,0,0,-1.5643,-1.561,-1.5611,-1.5444,-1.54,-1.5303,-1.5183,-1.5148,-1.5092,-1.5074,-1.491,-1.488,-1.4765,-1.4695,-1.4672,-1.4696,-1.4596,-1.4516,-1.4521,-1.4526,-1.4699,-1.4718,-1.4734,0,0,0,0,0,-1.5656,-1.5671,-1.5612,-1.5584,-1.5399,-1.5305,-1.5279,-1.5148,-1.5095,-1.5094,-1.4983,-1.4885,-1.4711,-1.469,-1.4663,-1.4685,-1.4513,-1.452,-1.4525,-1.4691,-1.4714,-1.4734,0,0,0,0,0,0,-1.5843,-1.5647,-1.5579,-1.5541,-1.5442,-1.527,-1.5265,-1.5177,-1.5088,-1.5076,-1.4914,-1.4879,-1.4836,-1.4754,-1.4735,-1.4679,-1.4599,-1.46,-1.4734,-1.4755,-1.4772,-1.4792,-1.4589,0,0,0,0,0,-1.5881,-1.5823,-1.5653,-1.5636,-1.559,-1.5437,-1.5391,-1.5299,-1.5188,-1.5144,-1.5028,-1.4923,-1.4844,-1.4795,-1.4713,-1.4687,-1.4647,-1.4688,-1.4706,-1.4722,-1.4724,-1.4703,-1.4719,-1.4548,-1.4548,-1.4548,0,0,-1.5957,-1.5842,-1.5815,-1.5671,-1.5583,-1.5525,-1.5403,-1.5346,-1.53,-1.5134,-1.5071,-1.4984,-1.4855,-1.4812,-1.4787,-1.4742,-1.4763,-1.4729,-1.4743,-1.4736,-1.4711,-1.4728,-1.4742,-1.4553,-1.4552,-1.4551,0,0,-1.6065,-1.5974,-1.595,-1.5865,-1.5734,-1.5632,-1.5627,-1.5469,-1.5405,-1.534,-1.5214,-1.5157,-1.5024,-1.4938,-1.4877,-1.4955,-1.4862,-1.4933,-1.5025,-1.5007,-1.502,-1.5031,-1.5058,-1.507,-1.4936,-1.4937,-1.4937,0,-1.6176,-1.6085,-1.5948,-1.5899,-1.5839,-1.5689,-1.5663,-1.5586,-1.5435,-1.5396,-1.5348,-1.518,-1.5082,-1.5017,-1.5037,-1.4993,-1.498,-1.495,-1.503,-1.5039,-1.5048,-1.5071,-1.5082,-1.4946,-1.4945,-1.4944,-1.4943,0,-1.6226,-1.6166,-1.6161,-1.6022,-1.5961,-1.5924,-1.578,-1.5735,-1.5649,-1.5552,-1.5487,-1.5366,-1.5256,-1.5234,-1.5148,-1.5157,-1.5133,-1.5061,-1.4976,-1.5076,-1.5095,-1.5104,-1.496,-1.4956,-1.4953,-1.4951,0,0,-1.6443,-1.6231,-1.6231,-1.6166,-1.6012,-1.5961,-1.5917,-1.5812,-1.5776,-1.5677,-1.5635,-1.5528,-1.546,-1.5391,-1.5294,-1.5278,-1.5348,-1.5206,-1.5201,-1.5236,-1.5348,-1.5404,-1.5416,-1.5286,-1.5287,-1.5288,-1.5359,0,-1.6526,-1.6441,-1.6317,-1.6272,-1.6213,-1.6071,-1.6032,-1.5933,-1.5842,-1.5777,-1.5675,-1.5601,-1.5518,-1.5475,-1.5454,-1.5344,-1.5368,-1.5337,-1.5242,-1.5241,-1.5278,-1.5427,-1.5484,-1.5557,-1.5366,-1.5367,-1.5368,0,-1.6611,-1.6523,-1.6473,-1.6324,-1.6295,-1.6263,-1.6157,-1.6098,-1.5982,-1.5917,-1.5842,-1.5737,-1.5681,-1.5608,-1.5528,-1.551,-1.5464,-1.5405,-1.5404,-1.5389,-1.5309,-1.5414,-1.5577,-1.5588,-1.5379,-1.5378,-1.5377,0,-1.6774,-1.6642,-1.6595,-1.6544,-1.6369,-1.635,-1.6276,-1.6157,-1.6103,-1.601,-1.5973,-1.5875,-1.5821,-1.5746,-1.5618,-1.5576,-1.5552,-1.5467,-1.5494,-1.5497,-1.5493,-1.5495,-1.565,-1.5467,-1.5467,-1.5467,-1.5467,0,-1.6878,-1.6853,-1.6666,-1.6637,-1.6604,-1.6462,-1.6432,-1.6345,-1.6241,-1.6191,-1.6062,-1.6017,-1.5851,-1.5787,-1.5686,-1.5635,-1.5612,-1.5556,-1.5529,-1.5566,-1.5573,-1.5532,-1.5523,-1.547,-1.5469,-1.5469,-1.5468,0,-1.7053,-1.6927,-1.6866,-1.6707,-1.6667,-1.665,-1.6512,-1.6478,-1.638,-1.6319,-1.6296,-1.6142,-1.606,-1.5925,-1.5803,-1.5735,-1.5702,-1.5657,-1.5742,-1.5725,-1.5759,-1.5758,-1.5892,-1.5902,-1.5716,-1.5718,-1.572,0,-1.7128,-1.7105,-1.6945,-1.6904,-1.6835,-1.677,-1.6714,-1.6574,-1.6521,-1.6388,-1.6369,-1.6278,-1.6197,-1.6072,-1.5947,-1.5853,-1.5805,-1.5859,-1.5789,-1.5828,-1.5804,-1.5806,-1.5802,-1.5874,-1.5877,-1.5879,-1.5881,0,-1.7273,-1.7212,-1.7138,-1.7043,-1.6982,-1.6899,-1.681,-1.6783,-1.6622,-1.6569,-1.6485,-1.6423,-1.6299,-1.6209,-1.6098,-1.6019,-1.5923,-1.5904,-1.5905,-1.5942,-1.5991,-1.5964,-1.5784,-1.5901,-1.5899,-1.5897,-1.5896,-1.5896,-1.7397,-1.7371,-1.7255,-1.7177,-1.7096,-1.7017,-1.6977,-1.6876,-1.6804,-1.6694,-1.6615,-1.6536,-1.642,-1.6261,-1.6188,-1.6123,-1.608,-1.6081,-1.6081,-1.6084,-1.6098,-1.6005,-1.6102,-1.6101,-1.6101,-1.61,-1.6099,0,-1.7535,-1.7454,-1.7384,-1.7265,-1.7204,-1.7123,-1.702,-1.6973,-1.6907,-1.6808,-1.6732,-1.6635,-1.6548,-1.6418,-1.632,-1.6293,-1.6247,-1.6272,-1.6271,-1.6255,-1.6142,-1.6151,-1.6311,-1.6311,-1.6311,-1.6311,-1.6311,-1.6311,-1.7599,-1.755,-1.7476,-1.7386,-1.7303,-1.7227,-1.7176,-1.7101,-1.7021,-1.692,-1.6848,-1.6765,-1.6654,-1.6547,-1.6463,-1.6426,-1.6396,-1.6435,-1.6385,-1.6282,-1.6263,-1.6244,-1.6251,-1.643,-1.643,-1.6502,-1.6503,-1.6504]},{"header":{"parameterUnit":"m.s-1","parameterCategory":1,"la1":30.2991,"la2":30.254,"lo1":-89.0895,"lo2":-89.0444,"dy":0.0017,"dx":0.0017,"nx":28,"ny":28,"refTime":"2023-08-29T09:00:00:Z","depth":0,"parameterNumber":3,"parameterNumberName":"V-component_of_WINDS"},"data":[0,0,0,0,0,0,0,0,0,0,0,0,0,0,0,0,0,0,0,0,0,0,0,0,0,0,0,0,0,0,0,0,0,0,0,0,0,0,0,0,0,0,0,0,0,0,0,0,0,0,0,0,0,0,0,0,0,0,0.407,0.4069,0,0.3968,0.3967,0.3966,0.3945,0.3946,0.3946,0.3947,0.384,0.3837,0.3833,0,0,0,0,0,0,0,0,0,0,0,0,0,0.4245,0.4242,0.407,0.4069,0.4068,0.3968,0.3967,0.3965,0.3945,0.3946,0.3946,0.3947,0.3842,0.3837,0.3833,0,0,0,0,0,0,0,0,0,0,0,0,0,0.4159,0.4241,0.407,0.4045,0.4042,0.3969,0.3967,0.3965,0.3944,0.3946,0.3947,0.3948,0.3843,0.3838,0.3832,0.3776,0,0,0.3816,0.3814,0,0,0,0,0,0,0,0,0.4164,0.4152,0.405,0.4047,0.4043,0.397,0.3989,0.3902,0.3944,0.3981,0.3947,0.3948,0.3883,0.3874,0.3852,0.3771,0.3767,0.3816,0.3812,0.381,0.3809,0,0,0,0,0,0,0,0.417,0.4156,0.403,0.4049,0.4044,0.4038,0.4027,0.3973,0.3927,0.3978,0.3977,0.3965,0.3881,0.3857,0.385,0.3765,0.3816,0.3811,0.3808,0.3806,0.3631,0.3629,0,0,0,0,0,0,0.418,0.4162,0.4033,0.4027,0.4108,0.4034,0.4022,0.3993,0.3927,0.3918,0.3964,0.3964,0.3866,0.3856,0.3846,0.3773,0.381,0.3805,0.3802,0.3632,0.363,0.3629,0,0,0,0,0,0,0.4184,0.4169,0.4037,0.4094,0.4076,0.403,0.3997,0.399,0.3966,0.3916,0.3908,0.3949,0.3867,0.3853,0.3793,0.377,0.3803,0.3798,0.3634,0.3631,0.3629,0.363,0,0,0,0,0,0,0.4189,0.417,0.4149,0.4093,0.4073,0.3987,0.3996,0.3987,0.3958,0.3957,0.39,0.3891,0.3866,0.3801,0.3788,0.3763,0.3794,0.3636,0.3633,0.363,0.3632,0.3628,0.3625,0,0,0,0,0,0.4196,0.4153,0.4148,0.4133,0.4046,0.3986,0.3974,0.3947,0.3956,0.3933,0.3901,0.3893,0.3775,0.3795,0.378,0.3753,0.3637,0.3634,0.363,0.3633,0.3629,0.3625,0,0,0,0,0,0,0.4207,0.4145,0.4139,0.4078,0.4037,0.3982,0.3953,0.3943,0.3899,0.39,0.3868,0.3855,0.3796,0.3769,0.3793,0.3694,0.3706,0.37,0.3714,0.3709,0.3706,0.3712,0.3789,0,0,0,0,0,0.4202,0.4159,0.4108,0.4059,0.4039,0.4,0.3972,0.3955,0.3911,0.3894,0.3857,0.3815,0.3768,0.3737,0.3692,0.3629,0.3615,0.3603,0.3599,0.3597,0.359,0.3553,0.3546,0.3618,0.3618,0.3618,0,0,0.4192,0.4153,0.4128,0.406,0.4026,0.3981,0.3985,0.3938,0.3904,0.3886,0.3827,0.3799,0.3749,0.3687,0.3658,0.3662,0.3568,0.3592,0.3591,0.3586,0.3549,0.3542,0.3536,0.3616,0.3616,0.3617,0,0,0.415,0.4117,0.4071,0.4038,0.3988,0.3962,0.3951,0.3898,0.3878,0.3819,0.3804,0.3763,0.3684,0.3648,0.362,0.3565,0.3555,0.3551,0.3532,0.3496,0.349,0.3485,0.3463,0.3455,0.3546,0.3546,0.3546,0,0.4143,0.4075,0.4049,0.4002,0.3972,0.3955,0.3908,0.3877,0.3814,0.3793,0.3799,0.3698,0.3664,0.3592,0.3579,0.3557,0.3542,0.3556,0.3493,0.3488,0.3482,0.3461,0.3453,0.3545,0.3545,0.3545,0.3545,0,0.4068,0.4022,0.3991,0.3931,0.3897,0.3851,0.3816,0.3786,0.3772,0.3745,0.3683,0.3642,0.3586,0.3569,0.3555,0.3495,0.3499,0.35,0.3511,0.3476,0.3455,0.3446,0.3545,0.3545,0.3545,0.3545,0,0,0.4028,0.3955,0.3944,0.3915,0.3859,0.3822,0.3774,0.3721,0.3694,0.3651,0.3609,0.3542,0.3542,0.351,0.3492,0.3461,0.3417,0.3465,0.3464,0.3455,0.3346,0.3343,0.3334,0.3411,0.341,0.3409,0.3349,0,0.3978,0.3892,0.3867,0.3794,0.375,0.3734,0.3692,0.3652,0.3626,0.3584,0.3555,0.3507,0.3513,0.3493,0.3462,0.3429,0.3394,0.3433,0.3369,0.3367,0.3379,0.3323,0.3321,0.3266,0.3341,0.3339,0.3338,0,0.3906,0.3862,0.3785,0.3733,0.3714,0.3676,0.3625,0.3585,0.3539,0.3523,0.3487,0.3471,0.342,0.3436,0.3363,0.339,0.3363,0.3343,0.334,0.3331,0.3349,0.331,0.3249,0.3239,0.3326,0.3327,0.3328,0,0.3882,0.3804,0.3747,0.3724,0.3662,0.3636,0.3609,0.3565,0.3534,0.3489,0.3468,0.3418,0.3389,0.335,0.3321,0.3336,0.325,0.3264,0.3232,0.3233,0.3212,0.3213,0.3143,0.32,0.32,0.32,0.32,0,0.3826,0.3778,0.3735,0.37,0.3646,0.3618,0.3565,0.3538,0.3498,0.3456,0.344,0.3401,0.3366,0.3322,0.33,0.3241,0.3229,0.3213,0.3207,0.3212,0.3214,0.3192,0.3194,0.3198,0.3199,0.3199,0.3199,0,0.3788,0.3757,0.3694,0.3641,0.3627,0.3589,0.3544,0.3508,0.3483,0.343,0.3416,0.3374,0.3322,0.329,0.3223,0.3207,0.3142,0.3139,0.3157,0.3154,0.3123,0.3125,0.3034,0.3019,0.3089,0.3088,0.3088,0,0.3753,0.3716,0.366,0.3631,0.3604,0.3558,0.3526,0.3497,0.3465,0.341,0.338,0.3327,0.3282,0.3199,0.3162,0.3111,0.3104,0.3076,0.3096,0.3102,0.31,0.3101,0.3096,0.3071,0.3071,0.307,0.307,0,0.3693,0.368,0.3635,0.3585,0.3547,0.3506,0.3465,0.3443,0.3407,0.3371,0.3317,0.3283,0.3214,0.3161,0.3106,0.3077,0.3066,0.3064,0.3053,0.3057,0.3068,0.3059,0.3145,0.3065,0.3066,0.3066,0.3066,0.3067,0.3653,0.3619,0.3574,0.3524,0.3491,0.3453,0.3416,0.3386,0.3341,0.3283,0.3269,0.3212,0.3166,0.3092,0.3062,0.3016,0.302,0.3006,0.3001,0.2997,0.2995,0.3078,0.3006,0.3007,0.3007,0.3007,0.3007,0,0.359,0.3561,0.3516,0.3459,0.3419,0.3415,0.3369,0.3336,0.3286,0.3245,0.3201,0.3138,0.3086,0.3046,0.2992,0.2963,0.2956,0.2949,0.2949,0.2942,0.2996,0.3009,0.2955,0.2955,0.2955,0.2955,0.2955,0.2955,0.3553,0.3494,0.3475,0.3399,0.337,0.3314,0.3288,0.3252,0.3219,0.3149,0.3106,0.3081,0.3039,0.2982,0.2933,0.2923,0.2902,0.2895,0.2883,0.2933,0.2939,0.2944,0.2956,0.2892,0.2892,0.2833,0.2833,0.2832]}]]